Lacon, IL

3:55 PM CDT on March 27, 2017 (GMT -0500)
Lacon

Weather History for KC75 - December, 2012

Change the Weather History Date:

Thursday, December 20, 2012

  Actual Average (KPIA) Record (KPIA)
Temperature  
Mean Temperature 37 °F -  
Max Temperature 50 °F 33 °F 62 °F (1949)
Min Temperature 24 °F 17 °F -12 °F (1989)
Degree Days  
Heating Degree Days 28    
Moisture  
Dew Point 36 °F    
Average Humidity 93    
Maximum Humidity 100    
Minimum Humidity 85    
Precipitation  
Precipitation 0.26 in - - ()
Sea Level Pressure  
Sea Level Pressure 29.34 in    
Wind  
Wind Speed 16 mph (West)    
Max Wind Speed 33 mph    
Max Gust Speed 45 mph    
Visibility 6 miles    
Events Rain , Snow    
Averages and records for this station are not official NWS values.
T = Trace of Precipitation, MM = Missing Value Source: NWS Daily Summary

Daily Weather History Graph

Daily Weather History Graph

Search for Another Location

Airport or City:

Trip Planner

Search our weather history database for the weather conditions in past years. The results will help you decide how hot, cold, wet, or windy it might be!

Date:

Astronomy

Dec. 20, 2012 Rise Set
Actual Time 7:18 AM CST 4:31 PM CST
Civil Twilight 6:47 AM CST 5:03 PM CST
Nautical Twilight 6:12 AM CST 5:37 PM CST
Astronomical Twilight 5:39 AM CST 6:11 PM CST
Moon 11:52 AM CST (12/20) 12:02 AM CST (12/20)
Length of Visible Light 10h 15m
Length of Day
9h 13m
First Quarter, 55% of the Moon is Illuminated
Dec 20
First Quarter
Dec 28
Full
Jan 4
Last Quarter
Jan 11
New
Jan 18
First Quarter

Hourly Weather History & Observations

Time (CST) Temp. Windchill Dew Point Humidity Pressure Visibility Wind Dir Wind Speed Gust Speed Precip Events Conditions
12:35 AM 39.2 °F 29.8 °F 39.2 °F 100% 29.60 in 5.0 mi East 18.4 mph 29.9 mph N/A Rain Light Rain
12:55 AM 39.9 °F 30.8 °F 38.3 °F 94% 29.58 in 5.0 mi East 18.4 mph 23.0 mph 0.03 in Rain Light Rain
1:15 AM 40.3 °F 31.9 °F 38.8 °F 95% 29.55 in 5.0 mi East 16.1 mph 23.0 mph N/A Rain Light Rain
1:35 AM 40.3 °F 33.0 °F 38.8 °F 95% 29.53 in 4.0 mi ENE 12.7 mph 18.4 mph N/A Rain Light Rain
1:55 AM 41.0 °F 34.3 °F 39.2 °F 93% 29.53 in 5.0 mi East 11.5 mph 21.9 mph N/A   Mist
2:15 AM 41.0 °F 33.1 °F 39.6 °F 95% 29.52 in 4.0 mi ENE 15.0 mph 21.9 mph 0.01 in   Drizzle
2:35 AM 41.0 °F 33.1 °F 39.6 °F 95% 29.50 in 4.0 mi ENE 15.0 mph - 0.01 in Rain Light Rain
2:55 AM 41.2 °F 34.1 °F 40.1 °F 96% 29.49 in 3.0 mi East 12.7 mph 20.7 mph 0.03 in Rain Rain
3:15 AM 41.5 °F 35.4 °F 40.3 °F 95% 29.47 in 4.0 mi East 10.4 mph - N/A Rain Light Rain
3:35 AM 41.5 °F 34.2 °F 40.5 °F 96% 29.45 in 3.0 mi East 13.8 mph 18.4 mph 0.06 in Rain Rain
3:55 AM 42.1 °F 34.9 °F 41.4 °F 97% 29.41 in 3.0 mi East 13.8 mph - 0.11 in Rain Light Rain
4:15 AM 42.8 °F 38.6 °F 41.9 °F 97% 29.38 in 3.0 mi East 6.9 mph 18.4 mph 0.03 in Rain Rain
4:35 AM 43.2 °F 36.2 °F 42.4 °F 97% 29.35 in 3.0 mi East 13.8 mph - 0.06 in Rain Light Rain
4:55 AM 44.2 °F 37.0 °F 43.7 °F 98% 29.27 in 4.0 mi East 16.1 mph 28.8 mph 0.08 in Rain Light Rain
5:15 AM 45.9 °F 40.0 °F 45.1 °F 97% 29.26 in 5.0 mi ESE 12.7 mph 26.5 mph N/A   Mist
5:35 AM 47.3 °F - 46.4 °F 97% 29.29 in 7.0 mi Calm Calm - N/A   Unknown
5:55 AM 48.0 °F - 46.9 °F 96% 29.29 in 10.0 mi Calm Calm - N/A   Unknown
6:15 AM 47.3 °F - 46.6 °F 97% 29.27 in 10.0 mi Calm Calm - N/A   Unknown
6:35 AM 47.5 °F - 47.1 °F 99% 29.27 in 7.0 mi ESE 3.5 mph - N/A   Unknown
6:55 AM 49.1 °F - 47.8 °F 95% 29.24 in 10.0 mi ESE 4.6 mph - N/A   Overcast
7:15 AM 49.1 °F - 47.7 °F 95% 29.23 in 10.0 mi SE 9.2 mph - N/A   Overcast
7:35 AM 49.1 °F - 47.8 °F 95% 29.22 in 10.0 mi ESE 8.1 mph - N/A   Overcast
7:55 AM 49.1 °F - 47.5 °F 94% 29.20 in 10.0 mi East 4.6 mph - N/A   Overcast
8:15 AM 48.4 °F - 46.9 °F 95% 29.19 in 10.0 mi East 5.8 mph - N/A   Overcast
8:35 AM 48.4 °F - 46.8 °F 94% 29.17 in 10.0 mi East 8.1 mph - N/A   Overcast
8:55 AM 48.7 °F - 46.8 °F 93% 29.16 in 10.0 mi ESE 8.1 mph - N/A   Overcast
9:15 AM 48.7 °F - 46.8 °F 93% 29.14 in 10.0 mi ESE 9.2 mph - N/A Rain Light Rain
9:35 AM 48.6 °F - 47.3 °F 95% 29.11 in 7.0 mi ESE 8.1 mph - N/A   Overcast
9:55 AM 50.0 °F - 48.2 °F 94% 29.10 in 10.0 mi SE 12.7 mph 21.9 mph N/A Rain Rain
10:15 AM 50.0 °F - 48.4 °F 94% 29.09 in 10.0 mi SSE 11.5 mph 20.7 mph N/A   Overcast
10:35 AM 50.4 °F - 48.2 °F 92% 29.08 in 10.0 mi South 12.7 mph 18.4 mph N/A   Overcast
10:55 AM 50.0 °F - 45.9 °F 86% 29.07 in 10.0 mi South 20.7 mph 31.1 mph N/A   Drizzle
11:15 AM 47.7 °F - 45.1 °F 91% 29.06 in 10.0 mi South 15.0 mph 29.9 mph N/A   Overcast
11:35 AM 47.8 °F - 44.8 °F 89% 29.05 in 10.0 mi South 12.7 mph 17.3 mph N/A   Mostly Cloudy
11:55 AM 45.1 °F 37.1 °F 42.3 °F 90% 29.05 in 10.0 mi South 20.7 mph 27.6 mph N/A   Overcast
12:15 PM 43.2 °F 35.0 °F 40.5 °F 90% 29.06 in 10.0 mi South 18.4 mph 29.9 mph N/A   Overcast
12:35 PM 42.1 °F 35.7 °F 39.9 °F 92% 29.05 in 10.0 mi SW 11.5 mph 24.2 mph N/A   Unknown
12:55 PM 40.3 °F 32.2 °F 38.3 °F 93% 29.06 in 7.0 mi WNW 15.0 mph 20.7 mph N/A   Light Drizzle
1:15 PM 37.8 °F 27.4 °F 36.0 °F 93% 29.06 in 3.0 mi NW 20.7 mph 26.5 mph N/A   Drizzle
1:35 PM 36.5 °F 27.8 °F 34.5 °F 93% 29.09 in 10.0 mi NW 13.8 mph 27.6 mph N/A   Light Drizzle
1:55 PM 35.1 °F 23.3 °F 32.9 °F 92% 29.10 in 10.0 mi NW 23.0 mph 29.9 mph N/A   Unknown
2:15 PM 34.5 °F 21.8 °F 32.0 °F 90% 29.12 in 10.0 mi NW 26.5 mph 33.4 mph N/A   Unknown
2:35 PM 33.8 °F 21.3 °F 32.0 °F 93% 29.14 in 3.0 mi NW 24.2 mph 31.1 mph N/A   Drizzle
2:55 PM 32.4 °F 20.6 °F 32.0 °F 99% 29.16 in 1.0 mi NW 19.6 mph 28.8 mph N/A Snow Light Snow
3:15 PM 32.0 °F 18.6 °F 31.6 °F 99% 29.19 in 0.8 mi WNW 25.3 mph 33.4 mph N/A Snow Light Snow
3:35 PM 32.0 °F 18.9 °F 31.6 °F 99% 29.22 in 0.8 mi WNW 24.2 mph 34.5 mph N/A Snow Light Snow
3:55 PM 32.0 °F 19.2 °F 31.1 °F 96% 29.24 in 0.8 mi WNW 23.0 mph 32.2 mph 0.01 in Snow Light Snow
4:15 PM 32.0 °F 19.2 °F 31.1 °F 96% 29.27 in 0.8 mi WNW 23.0 mph 42.6 mph N/A Snow Light Snow
4:35 PM 32.0 °F 18.1 °F 30.6 °F 94% 29.30 in 1.5 mi WNW 27.6 mph 41.4 mph N/A Snow Light Snow
4:55 PM 32.0 °F 17.4 °F 29.7 °F 91% 29.33 in 4.0 mi WNW 31.1 mph 44.9 mph N/A Rain Light Rain
5:15 PM 31.8 °F 17.9 °F 29.3 °F 90% 29.35 in 5.0 mi WNW 27.6 mph 43.7 mph N/A Snow Light Snow
5:35 PM 31.1 °F 15.7 °F 29.7 °F 94% 29.39 in 1.2 mi WNW 33.4 mph 41.4 mph N/A Snow Light Snow
5:55 PM 30.9 °F 16.2 °F 29.5 °F 94% 29.42 in 1.0 mi WNW 29.9 mph 40.3 mph N/A Snow Snow
6:15 PM 30.2 °F 16.2 °F 28.8 °F 94% 29.44 in 1.2 mi WNW 25.3 mph 34.5 mph N/A Snow Light Snow
6:35 PM 29.7 °F 15.5 °F 28.2 °F 94% 29.46 in 1.0 mi West 25.3 mph 44.9 mph N/A Snow Snow
6:55 PM 29.3 °F 14.0 °F 27.5 °F 93% 29.48 in 1.2 mi West 29.9 mph 38.0 mph N/A Snow Light Snow
7:15 PM 29.1 °F 14.5 °F 27.3 °F 93% 29.50 in 1.2 mi West 26.5 mph 38.0 mph N/A Snow Light Snow
7:35 PM 28.8 °F 13.7 °F 26.8 °F 92% 29.52 in 1.2 mi West 27.6 mph 40.3 mph N/A Snow Light Snow
7:55 PM 28.4 °F 13.5 °F 26.6 °F 93% 29.53 in 1.2 mi West 26.5 mph 39.1 mph N/A Snow Light Snow
8:15 PM 28.0 °F 13.0 °F 26.2 °F 93% 29.55 in 1.0 mi West 26.5 mph 40.3 mph N/A Snow Light Snow
8:35 PM 27.7 °F 12.8 °F 25.7 °F 92% 29.57 in 1.0 mi West 25.3 mph 43.7 mph N/A Snow Light Snow
8:55 PM 27.5 °F 12.0 °F 25.7 °F 93% 29.58 in 1.2 mi West 27.6 mph 42.6 mph N/A Snow Light Snow
9:15 PM 27.5 °F 12.6 °F 25.2 °F 91% 29.59 in 1.2 mi West 25.3 mph 39.1 mph N/A Snow Light Snow
9:35 PM 27.5 °F 12.9 °F 25.0 °F 90% 29.61 in 1.8 mi West 24.2 mph 39.1 mph N/A Snow Light Snow
9:55 PM 27.5 °F 13.5 °F 24.1 °F 87% 29.63 in 3.0 mi West 21.9 mph 36.8 mph N/A Snow Light Snow
10:15 PM 27.1 °F 12.4 °F 23.5 °F 86% 29.64 in 4.0 mi West 24.2 mph 39.1 mph N/A Snow Light Snow
10:35 PM 27.0 °F 13.2 °F 23.0 °F 85% 29.66 in 7.0 mi West 20.7 mph 36.8 mph N/A Snow Light Snow
10:55 PM 26.1 °F 11.6 °F 22.1 °F 85% 29.67 in 7.0 mi West 21.9 mph 36.8 mph N/A   Overcast
11:15 PM 25.2 °F 12.0 °F 21.6 °F 86% 29.69 in 5.0 mi West 17.3 mph 29.9 mph N/A Snow Light Snow
11:35 PM 24.6 °F 9.4 °F 21.0 °F 86% 29.70 in 10.0 mi West 23.0 mph 31.1 mph N/A   Overcast
11:55 PM 24.4 °F 10.2 °F 20.7 °F 86% 29.72 in 10.0 mi West 19.6 mph 28.8 mph N/A   Overcast